GW0378 Weather Reports


Display with metric or nautical units.
time (UTC)temp
F
wind
direction
speed
MPH
gust
MPH
rain 1hr
in
rain 24hr
in
rain mn
in
humidity
%
barometer
mb
20260901081752 54 68 2.0 3.0 0.00 0.00 0.00 57 1013.6
20260901081252 55 126 0.0 2.0 0.00 0.00 0.00 55 1013.5
20260901080747 55 139 2.0 3.0 0.00 0.00 0.00 57 1013.5
20260901080246 55 74 0.0 2.0 0.00 0.00 0.00 55 1013.7
20260901075740 56 117 1.0 3.0 0.00 0.00 0.00 54 1013.7
20260901075235 57 90 1.0 1.0 0.00 0.00 0.00 52 1013.6
20260901074730 58 74 2.0 2.0 0.00 0.00 0.00 50 1013.6
20260901074225 57 96 3.0 4.0 0.00 0.00 0.00 50 1013.6
20260901073722 57 98 0.0 1.0 0.00 0.00 0.00 52 1013.7
20260901073217 58 114 2.0 5.0 0.00 0.00 0.00 50 1013.5
20260901072712 59 73 4.0 6.0 0.00 0.00 0.00 49 1013.5
20260901072207 59 111 4.0 7.0 0.00 0.00 0.00 48 1013.5
20260901071707 59 188 0.0 8.0 0.00 0.00 0.00 49 1013.5
20260901071201 59 171 0.0 5.0 0.00 0.00 0.00 49 1013.7
20260901070655 57 86 2.0 2.0 0.00 0.00 0.00 51 1013.6
20260901070150 57 106 0.0 2.0 0.00 0.00 0.00 54 1013.6
20260901065649 58 151 0.0 2.0 0.00 0.00 0.00 51 1013.5
20260901065144 57 84 2.0 4.0 0.00 0.00 0.00 53 1013.7
20260901064641 58 120 0.0 3.0 0.00 0.00 0.00 51 1013.4
20260901064137 59 102 2.0 2.0 0.00 0.00 0.00 49 1013.5
20260901063635 60 90 2.0 9.0 0.00 0.00 0.00 47 1013.6
20260901063130 59 78 5.0 7.0 0.00 0.00 0.00 48 1013.4
20260901062625 58 125 3.0 6.0 0.00 0.00 0.00 50 1013.5
20260901062121 59 112 3.0 7.0 0.00 0.00 0.00 51 1013.4
20260901061617 60 103 9.0 9.0 0.00 0.00 0.00 47 1013.6
20260901061111 60 104 6.0 8.0 0.00 0.00 0.00 48 1013.4
20260901060606 57 113 4.0 6.0 0.00 0.00 0.00 54 1013.6
20260901055556 58 107 3.0 5.0 0.00 0.00 0.00 51 1013.5
20260901055053 59 157 0.0 2.0 0.00 0.00 0.00 49 1013.6
20260901054550 58 115 2.0 4.0 0.00 0.00 0.00 51 1013.7
20260901054045 60 151 0.0 2.0 0.00 0.00 0.00 47 1013.6
20260901053542 59 144 0.0 3.0 0.00 0.00 0.00 50 1013.7
20260901053037 59 135 2.0 4.0 0.00 0.00 0.00 49 1013.5
20260901052537 59 123 2.0 3.0 0.00 0.00 0.00 49 1013.7
20260901052032 59 112 2.0 2.0 0.00 0.00 0.00 50 1013.5
20260901051527 60 129 2.0 4.0 0.00 0.00 0.00 48 1013.6
20260901051026 62 103 4.0 5.0 0.00 0.00 0.00 44 1013.5
20260901050521 62 112 3.0 4.0 0.00 0.00 0.00 44 1013.6
20260901050016 60 125 5.0 5.0 0.00 0.00 0.00 46 1013.7
20260901045511 61 100 4.0 5.0 0.00 0.00 0.00 46 1013.5
20260901045006 61 90 4.0 5.0 0.00 0.00 0.00 45 1013.6
20260901044502 62 110 6.0 7.0 0.00 0.00 0.00 44 1013.6
20260901043957 62 123 2.0 5.0 0.00 0.00 0.00 44 1013.6
20260901043453 62 113 4.0 8.0 0.00 0.00 0.00 45 1013.7
20260901042948 61 123 4.0 5.0 0.00 0.00 0.00 47 1013.7
20260901042447 62 83 4.0 6.0 0.00 0.00 0.00 44 1013.7
20260901041943 62 107 6.0 6.0 0.00 0.00 0.00 44 1013.8
20260901041438 63 87 3.0 6.0 0.00 0.00 0.00 43 1013.6
20260901040937 63 96 5.0 7.0 0.00 0.00 0.00 44 1013.8
20260901040432 62 111 3.0 4.0 0.00 0.00 0.00 45 1013.5
20260901035931 62 85 3.0 6.0 0.00 0.00 0.00 44 1013.7
20260901035430 62 111 3.0 3.0 0.00 0.00 0.00 44 1013.7
20260901034929 62 107 4.0 4.0 0.00 0.00 0.00 44 1013.8
20260901034424 63 103 4.0 5.0 0.00 0.00 0.00 43 1013.6
20260901033919 64 106 3.0 4.0 0.00 0.00 0.00 42 1013.7
20260901033418 65 111 4.0 7.0 0.00 0.00 0.00 40 1013.6
20260901032916 64 110 3.0 5.0 0.00 0.00 0.00 42 1013.8
20260901032416 65 107 3.0 3.0 0.00 0.00 0.00 41 1013.8
20260901031911 65 115 2.0 3.0 0.00 0.00 0.00 41 1013.6
20260901031407 67 194 0.0 0.0 0.00 0.00 0.00 39 1013.7
20260901030906 68 215 0.0 3.0 0.00 0.00 0.00 38 1013.6
20260901030402 68 133 3.0 8.0 0.00 0.00 0.00 37 1013.5
20260901025901 69 125 4.0 10.0 0.00 0.00 0.00 37 1013.5
20260901025356 68 128 4.0 7.0 0.00 0.00 0.00 38 1013.5
20260901024851 69 162 1.0 5.0 0.00 0.00 0.00 36 1013.5
20260901024350 69 90 2.0 6.0 0.00 0.00 0.00 37 1013.2
20260901023848 68 90 4.0 5.0 0.00 0.00 0.00 37 1013.1
20260901023344 69 109 3.0 4.0 0.00 0.00 0.00 37 1013.2
20260901022838 69 90 3.0 5.0 0.00 0.00 0.00 36 1013.1
20260901022335 70 112 3.0 5.0 0.00 0.00 0.00 37 1013.1
20260901021830 70 111 3.0 3.0 0.00 0.00 0.00 38 1013.1
20260901021325 71 121 2.0 3.0 0.00 0.00 0.00 39 1013.1
20260901020820 71 128 2.0 2.0 0.00 0.00 0.00 40 1013.2
20260901020315 72 180 0.0 0.0 0.00 0.00 0.00 39 1012.9
20260901015809 73 180 0.0 0.0 0.00 0.00 0.00 39 1013.2
20260901015306 75 188 0.0 2.0 0.00 0.00 0.00 34 1012.9
20260901014805 76 240 0.0 1.0 0.00 0.00 0.00 34 1012.8
20260901014301 77 254 0.0 2.0 0.00 0.00 0.00 32 1012.9
20260901013757 78 213 2.0 2.0 0.00 0.00 0.00 31 1012.9
20260901013252 78 180 0.0 2.0 0.00 0.00 0.00 30 1012.8
20260901012747 79 185 0.0 2.0 0.00 0.00 0.00 30 1012.9
20260901012247 79 195 0.0 2.0 0.00 0.00 0.00 30 1013.0
20260901011743 79 285 1.0 3.0 0.00 0.00 0.00 28 1012.9
20260901011238 79 263 3.0 4.0 0.00 0.00 0.00 29 1012.7
20260901010732 81 266 3.0 3.0 0.00 0.00 0.00 27 1012.9
20260901010227 80 245 4.0 4.0 0.00 0.00 0.00 28 1013.0
20260901005725 81 297 0.0 2.0 0.00 0.00 0.00 29 1012.8
20260901005221 81 303 2.0 4.0 0.00 0.00 0.00 28 1012.9
20260901004720 81 270 3.0 4.0 0.00 0.00 0.00 27 1012.9
20260901004210 81 274 2.0 5.0 0.00 0.00 0.00 26 1013.2
20260901003709 82 261 0.0 2.0 0.00 0.00 0.00 27 1013.4
20260901003209 82 262 3.0 4.0 0.00 0.00 0.00 25 1013.4
20260901002703 82 287 2.0 2.0 0.00 0.00 0.00 26 1013.2
20260901002158 81 285 2.0 5.0 0.00 0.00 0.00 26 1013.4
20260901001653 81 325 0.0 3.0 0.00 0.00 0.00 26 1013.5
20260901001148 81 290 2.0 5.0 0.00 0.00 0.00 26 1013.6
20260901000644 81 278 2.0 5.0 0.00 0.00 0.00 26 1013.6
20260901000139 80 270 0.0 6.0 0.00 0.00 0.00 25 1013.6
20260831235633 81 257 4.0 6.0 0.00 0.00 0.00 26 1013.6
20260831235128 82 266 2.0 3.0 0.00 0.00 0.00 25 1013.7
20260831234627 81 286 1.0 3.0 0.00 0.00 0.00 25 1013.6
20260831234123 81 350 2.0 4.0 0.00 0.00 0.00 27 1013.9
20260831233618 81 29 0.0 4.0 0.00 0.00 0.00 26 1013.8
20260831233113 81 187 1.0 4.0 0.00 0.00 0.00 25 1014.0
20260831232609 81 245 2.0 4.0 0.00 0.00 0.00 26 1014.0
20260831232104 81 31 3.0 4.0 0.00 0.00 0.00 26 1013.9
20260831231601 80 21 2.0 3.0 0.00 0.00 0.00 26 1014.1
20260831231056 81 264 0.0 2.0 0.00 0.00 0.00 25 1014.6
20260831230552 81 250 3.0 3.0 0.00 0.00 0.00 26 1014.4
20260831230052 80 334 0.0 3.0 0.00 0.00 0.00 26 1014.2
20260831225547 79 279 3.0 6.0 0.00 0.00 0.00 28 1014.5
20260831225041 80 277 4.0 6.0 0.00 0.00 0.00 26 1014.6
20260831224537 80 35 0.0 3.0 0.00 0.00 0.00 26 1014.8
20260831224032 80 41 2.0 4.0 0.00 0.00 0.00 28 1014.6
20260831223527 78 234 1.0 4.0 0.00 0.00 0.00 26 1014.8
20260831223024 78 270 5.0 6.0 0.00 0.00 0.00 28 1014.8
20260831222520 78 82 3.0 4.0 0.00 0.00 0.00 27 1014.9
20260831222019 78 347 3.0 4.0 0.00 0.00 0.00 27 1015.0
20260831221515 78 0 1.0 5.0 0.00 0.00 0.00 28 1015.0
20260831221010 78 335 4.0 4.0 0.00 0.00 0.00 27 1015.0
20260831220505 77 65 0.0 3.0 0.00 0.00 0.00 26 1015.1
20260831220000 77 228 2.0 5.0 0.00 0.00 0.00 28 1015.5
20260831215456 77 9 3.0 5.0 0.00 0.00 0.00 27 1015.2
20260831214952 78 292 3.0 5.0 0.00 0.00 0.00 28 1015.5
20260831214449 76 328 3.0 9.0 0.00 0.00 0.00 29 1015.6
20260831213945 77 255 0.0 4.0 0.00 0.00 0.00 28 1015.7
20260831213441 76 306 1.0 7.0 0.00 0.00 0.00 27 1015.6
20260831212941 76 331 1.0 4.0 0.00 0.00 0.00 28 1015.8
20260831212437 77 306 5.0 5.0 0.00 0.00 0.00 30 1015.6
20260831211937 76 221 2.0 6.0 0.00 0.00 0.00 29 1015.7
20260831211432 75 251 4.0 4.0 0.00 0.00 0.00 29 1015.8
20260831210931 75 263 1.0 5.0 0.00 0.00 0.00 30 1016.2
20260831210427 75 285 2.0 7.0 0.00 0.00 0.00 29 1015.9
20260831205923 75 231 5.0 5.0 0.00 0.00 0.00 30 1016.2
20260831205418 74 279 3.0 5.0 0.00 0.00 0.00 31 1016.1
20260831204913 75 239 4.0 7.0 0.00 0.00 0.00 30 1016.1
20260831204412 74 247 5.0 6.0 0.00 0.00 0.00 30 1016.4
20260831203906 74 281 3.0 5.0 0.00 0.00 0.00 30 1016.2
20260831203401 73 157 0.0 5.0 0.00 0.00 0.00 30 1016.2
20260831202858 74 306 3.0 6.0 0.00 0.00 0.00 30 1016.6
20260831202354 73 303 2.0 5.0 0.00 0.00 0.00 31 1016.6
20260831201854 72 252 6.0 6.0 0.00 0.00 0.00 32 1016.7
20260831201352 73 265 4.0 5.0 0.00 0.00 0.00 33 1016.8
20260831200849 72 342 3.0 3.0 0.00 0.00 0.00 33 1016.7
20260831200343 71 14 3.0 5.0 0.00 0.00 0.00 32 1016.8
20260831195838 71 29 0.0 3.0 0.00 0.00 0.00 33 1017.0
20260831195334 71 335 4.0 5.0 0.00 0.00 0.00 34 1016.9
20260831194830 69 299 2.0 4.0 0.00 0.00 0.00 35 1017.1
20260831194325 70 8 0.0 5.0 0.00 0.00 0.00 34 1017.4
20260831193824 70 84 1.0 5.0 0.00 0.00 0.00 36 1017.4
20260831193319 69 239 0.0 6.0 0.00 0.00 0.00 38 1017.5
20260831192814 69 256 3.0 5.0 0.00 0.00 0.00 37 1017.5
20260831192309 68 270 3.0 6.0 0.00 0.00 0.00 38 1017.5
20260831191805 68 281 3.0 8.0 0.00 0.00 0.00 38 1017.6
20260831191301 68 113 2.0 3.0 0.00 0.00 0.00 37 1017.6
20260831190756 67 313 3.0 4.0 0.00 0.00 0.00 40 1017.8
20260831190250 67 90 2.0 3.0 0.00 0.00 0.00 41 1017.9
20260831185744 67 324 3.0 5.0 0.00 0.00 0.00 40 1017.9
20260831185241 67 312 6.0 7.0 0.00 0.00 0.00 41 1018.0
20260831184739 66 0 0.0 3.0 0.00 0.00 0.00 44 1018.5
20260831184235 64 272 5.0 7.0 0.00 0.00 0.00 43 1018.3
20260831183736 64 327 0.0 4.0 0.00 0.00 0.00 44 1018.3
20260831183230 64 249 1.0 5.0 0.00 0.00 0.00 45 1018.8
20260831182728 62 249 3.0 4.0 0.00 0.00 0.00 43 1018.6
20260831182224 62 294 1.0 5.0 0.00 0.00 0.00 43 1018.7
20260831181724 63 353 4.0 5.0 0.00 0.00 0.00 42 1018.8
20260831181220 62 157 1.0 4.0 0.00 0.00 0.00 43 1018.8
20260831180714 62 257 2.0 3.0 0.00 0.00 0.00 44 1018.9
20260831180209 60 275 4.0 5.0 0.00 0.00 0.00 45 1019.1
20260831175709 60 357 3.0 4.0 0.00 0.00 0.00 45 1019.3
20260831175206 60 212 2.0 5.0 0.00 0.00 0.00 44 1019.3
20260831174705 60 263 0.0 5.0 0.00 0.00 0.00 45 1019.3
20260831174201 59 311 0.0 4.0 0.00 0.00 0.00 47 1019.5
20260831173659 60 307 2.0 3.0 0.00 0.00 0.00 46 1019.5
20260831173155 59 341 5.0 6.0 0.00 0.00 0.00 46 1019.3
20260831172655 59 277 0.0 5.0 0.00 0.00 0.00 48 1019.3
20260831172150 59 24 2.0 3.0 0.00 0.00 0.00 48 1019.6
20260831171645 59 90 0.0 3.0 0.00 0.00 0.00 48 1019.7
20260831171143 59 26 2.0 4.0 0.00 0.00 0.00 48 1019.8
20260831170638 59 60 0.0 3.0 0.00 0.00 0.00 52 1019.6
20260831170135 56 13 3.0 4.0 0.00 0.00 0.00 55 1019.8
20260831165631 58 60 0.0 2.0 0.00 0.00 0.00 53 1019.7
20260831165127 56 50 5.0 6.0 0.00 0.00 0.00 55 1019.9
20260831164623 56 294 3.0 4.0 0.00 0.00 0.00 58 1019.9
20260831164119 55 270 4.0 4.0 0.00 0.00 0.00 57 1020.1
20260831163613 56 285 1.0 4.0 0.00 0.00 0.00 56 1019.9
20260831163109 54 331 0.0 4.0 0.00 0.00 0.00 57 1020.2
20260831162608 54 349 0.0 3.0 0.00 0.00 0.00 59 1020.1
20260831162106 53 277 0.0 6.0 0.00 0.00 0.00 60 1020.0
20260831161602 53 352 2.0 3.0 0.00 0.00 0.00 61 1020.3
20260831161059 53 10 3.0 4.0 0.00 0.00 0.00 60 1020.2
20260831160557 52 151 0.0 2.0 0.00 0.00 0.00 61 1020.3
20260831160053 52 270 2.0 3.0 0.00 0.00 0.00 61 1020.2
20260831155547 52 40 2.0 2.0 0.00 0.00 0.00 61 1020.1
20260831155043 51 28 2.0 3.0 0.00 0.00 0.00 62 1020.2
20260831154539 53 114 2.0 3.0 0.00 0.00 0.00 60 1020.3
20260831154038 51 0 0.0 2.0 0.00 0.00 0.00 63 1020.5
20260831153538 50 11 0.0 3.0 0.00 0.00 0.00 64 1020.2
20260831153035 50 287 0.0 4.0 0.00 0.00 0.00 64 1020.3
20260831152530 50 34 2.0 4.0 0.00 0.00 0.00 64 1020.3
20260831152026 50 120 2.0 3.0 0.00 0.00 0.00 64 1020.3
20260831151525 49 346 0.0 3.0 0.00 0.00 0.00 66 1020.3
20260831151025 48 213 2.0 3.0 0.00 0.00 0.00 67 1020.5
20260831150520 48 16 0.0 3.0 0.00 0.00 0.00 67 1020.5
20260831150016 48 279 0.0 3.0 0.00 0.00 0.00 67 1020.3
20260831145511 48 194 1.0 2.0 0.00 0.00 0.00 67 1020.2
20260831145007 48 294 0.0 3.0 0.00 0.00 0.00 67 1020.2
20260831144502 48 294 1.0 2.0 0.00 0.00 0.00 66 1020.2
20260831143957 48 23 1.0 2.0 0.00 0.00 0.00 65 1020.3
20260831143452 48 292 2.0 2.0 0.00 0.00 0.00 66 1020.3
20260831142948 48 41 2.0 3.0 0.00 0.00 0.00 66 1020.3
20260831142444 48 270 0.0 1.0 0.00 0.00 0.00 66 1020.5
20260831141938 48 187 0.0 1.0 0.00 0.00 0.00 64 1020.2
20260831141431 50 74 0.0 1.0 0.00 0.00 0.00 61 1020.2
20260831140927 47 186 0.0 0.0 0.00 0.00 0.00 67 1020.2
20260831140421 46 186 0.0 2.0 0.00 0.00 0.00 68 1020.2
20260831135920 45 212 0.0 1.0 0.00 0.00 0.00 70 1020.2
20260831135420 44 225 0.0 3.0 0.00 0.00 0.00 71 1020.1
20260831134915 43 160 0.0 3.0 0.00 0.00 0.00 74 1020.0
20260831134412 42 78 1.0 3.0 0.00 0.00 0.00 77 1020.1
20260831133911 42 26 0.0 3.0 0.00 0.00 0.00 78 1019.9
20260831133406 41 113 2.0 2.0 0.00 0.00 0.00 79 1020.0
20260831132901 41 112 3.0 3.0 0.00 0.00 0.00 78 1019.9
20260831132356 42 140 0.0 2.0 0.00 0.00 0.00 75 1019.9
20260831131855 42 154 1.0 2.0 0.00 0.00 0.00 75 1019.8
20260831131351 42 105 1.0 2.0 0.00 0.00 0.00 76 1020.0
20260831130846 42 97 1.0 2.0 0.00 0.00 0.00 75 1019.9
20260831130342 42 121 2.0 2.0 0.00 0.00 0.00 76 1019.8
20260831125841 42 83 1.0 5.0 0.00 0.00 0.00 74 1019.9
20260831125336 43 144 2.0 4.0 0.00 0.00 0.00 72 1019.9
20260831124831 43 125 3.0 6.0 0.00 0.00 0.00 72 1019.7
20260831124327 43 125 2.0 4.0 0.00 0.00 0.00 73 1019.6
20260831123827 43 112 3.0 4.0 0.00 0.00 0.00 73 1019.6
20260831123326 42 118 3.0 4.0 0.00 0.00 0.00 75 1019.1
20260831122821 42 118 4.0 4.0 0.00 0.00 0.00 75 1019.6
20260831122316 42 135 2.0 4.0 0.00 0.00 0.00 75 1019.6
20260831121816 42 96 3.0 4.0 0.00 0.00 0.00 75 1019.6
20260831121313 43 105 2.0 3.0 0.00 0.00 0.00 73 1019.5
20260831120808 42 123 4.0 4.0 0.00 0.00 0.00 73 1019.0
20260831120302 42 148 0.0 4.0 0.00 0.00 0.00 74 1019.3
20260831115757 42 98 2.0 3.0 0.00 0.00 0.00 74 1019.2
20260831115254 43 131 4.0 6.0 0.00 0.00 0.00 72 1019.5
20260831114753 43 124 3.0 5.0 0.00 0.00 0.00 73 1019.8
20260831114247 43 132 2.0 4.0 0.00 0.00 0.00 73 1019.3
20260831113742 42 132 0.0 2.0 0.00 0.00 0.00 73 1019.5
20260831113237 42 103 1.0 3.0 0.00 0.00 0.00 73 1019.3
20260831112736 42 114 1.0 3.0 0.00 0.00 0.00 73 1019.5
20260831112231 43 120 0.0 2.0 0.00 0.00 0.00 72 1019.5
20260831111727 43 117 2.0 4.0 0.00 0.00 0.00 71 1019.2
20260831111223 44 108 3.0 5.0 0.00 0.00 0.00 69 1019.3
20260831110719 44 125 4.0 6.0 0.00 0.00 0.00 70 1019.5
20260831110214 43 100 4.0 5.0 0.00 0.00 0.00 71 1019.3
20260831105712 44 103 5.0 6.0 0.00 0.00 0.00 70 1019.3
20260831105208 44 107 3.0 4.0 0.00 0.00 0.00 70 1019.2
20260831104703 45 102 3.0 4.0 0.00 0.00 0.00 68 1019.3
20260831104200 45 90 4.0 4.0 0.00 0.00 0.00 67 1019.3
20260831103659 46 120 3.0 5.0 0.00 0.00 0.00 66 1019.3
20260831103155 45 113 4.0 5.0 0.00 0.00 0.00 67 1019.1
20260831102654 45 122 4.0 5.0 0.00 0.00 0.00 68 1019.2
20260831102149 45 115 4.0 5.0 0.00 0.00 0.00 67 1019.1
20260831101645 45 118 3.0 4.0 0.00 0.00 0.00 68 1019.2
20260831101141 44 67 4.0 6.0 0.00 0.00 0.00 69 1019.2
20260831100637 44 119 3.0 5.0 0.00 0.00 0.00 69 1019.0
20260831100133 44 80 2.0 5.0 0.00 0.00 0.00 69 1019.1
20260831095630 44 112 3.0 4.0 0.00 0.00 0.00 70 1019.1
20260831095126 44 103 3.0 3.0 0.00 0.00 0.00 70 1019.0
20260831094621 44 112 3.0 3.0 0.00 0.00 0.00 70 1018.9
20260831094117 45 105 1.0 1.0 0.00 0.00 0.00 68 1018.9
20260831093613 45 103 2.0 3.0 0.00 0.00 0.00 69 1018.8
20260831093108 45 98 3.0 3.0 0.00 0.00 0.00 69 1019.0
20260831092604 46 126 0.0 2.0 0.00 0.00 0.00 67 1019.0
20260831092100 45 139 2.0 2.0 0.00 0.00 0.00 67 1019.1
20260831091559 46 94 2.0 3.0 0.00 0.00 0.00 66 1019.0
20260831091055 48 255 0.0 2.0 0.00 0.00 0.00 64 1018.9
20260831090550 48 63 2.0 4.0 0.00 0.00 0.00 61 1018.9
20260831090046 47 90 2.0 4.0 0.00 0.00 0.00 63 1019.0
20260831085541 47 124 3.0 5.0 0.00 0.00 0.00 64 1019.0
20260831085036 46 108 5.0 5.0 0.00 0.00 0.00 66 1018.9
20260831084532 46 110 4.0 5.0 0.00 0.00 0.00 67 1019.0
20260831084028 46 106 3.0 3.0 0.00 0.00 0.00 69 1019.0
20260831083524 46 120 3.0 3.0 0.00 0.00 0.00 67 1019.0
20260831083018 46 131 3.0 3.0 0.00 0.00 0.00 66 1019.0
20260831082518 46 109 3.0 4.0 0.00 0.00 0.00 66 1018.8